Location: Forli
(44.2227°N, 12.0407°E)
Time: 18:25:48
(UTC+01:00)

ISS - Pass Details

Date: 19 February 2026
Orbit: 416 x 427 km, 51.6° (Epoch: 6 March)

Event Time Altitude Azimuth Distance (km) Brightness Sun altitude
Exits shadow 05:42:44 28° 312° (NW) 814 -2.7 -15.5°
Maximum altitude 05:43:33 32° 342° (NNW) 737 -2.7 -15.4°
Drops below altitude 10° 05:46:37 10° 48° (NE) 1,495 -0.3 -14.8°
Sets 05:48:51 0° 59° (ENE) 2,359 1.1 -14.4°
